Miscellaneous Local Product
Issued by NWS Hastings, NE

Home | Current Version | Previous Version | Graphics & Text | Print | Product List | Glossary On
Versions: 1 2 3 4 5 6 7 8 9 10 11 12 13 14 15 16 17 18 19 20 21 22 23 24 25 26 27 28 29 30 31 32 33 34 35 36 37 38 39 40 41 42 43 44 45 46 47 48 49 50
000
AXUS43 KGID 271702
MISGRI

GID CWA HOURLY WEATHER ROUNDUP
NATIONAL WEATHER SERVICE HASTINGS NE
1200 PM CDT FRI MAR 27 2015

NOTE: "FAIR" INDICATES FEW OR NO CLOUDS BELOW 12,000 FEET WITH NO
SIGNIFICANT WEATHER AND/OR OBSTRUCTIONS TO VISIBILITY.

...SOUTH CENTRAL NEBRASKA...

CITY           SKY/WX    TMP DP  RH WIND       PRES   REMARKS
GRAND ISLAND   CLOUDY    36  22  56 S7        30.24F WCI  30
HASTINGS       CLOUDY    35  22  58 SE7       30.23F WCI  29
KEARNEY        CLOUDY    34  23  64 S8        30.22F WCI  27
ORD            CLOUDY    34  23  64 S10       30.18F WCI  26
YORK           PTSUNNY   32  23  69 E5        30.26F WCI  27
AURORA         CLOUDY    33  22  63 CALM      30.25F
LEXINGTON      CLOUDY    38  27  65 S9        30.20F WCI  31
HOLDREGE       CLOUDY    36  24  60 S8        30.21F WCI  30
HEBRON         MOSUNNY   36  20  52 CALM      30.27F

...NEBRASKA PANHANDLE...

CITY           SKY/WX    TMP DP  RH WIND       PRES   REMARKS
CHADRON        CLOUDY    55  39  54 NW17G24   30.06F
ALLIANCE       CLOUDY    58  39  49 NW21      30.07F
SCOTTSBLUFF    CLOUDY    53  39  59 NW13      30.11F
SIDNEY         PTSUNNY   53  36  52 W13       30.12F

...WESTERN AND NORTH CENTRAL NEBRASKA...

CITY           SKY/WX    TMP DP  RH WIND       PRES   REMARKS
VALENTINE      CLOUDY    42  30  62 S16       30.04F
AINSWORTH      CLOUDY    38  29  71 S18       30.08F WCI  28
ONEILL         CLOUDY    32  26  78 S10       30.18F WCI  24
BROKEN BOW     CLOUDY    37  27  67 S15G24    30.16F WCI  28
IMPERIAL         N/A     47  35  63 SW13      30.14F
NORTH PLATTE   CLOUDY    38  32  79 S13       30.14F WCI  30
MCCOOK         CLOUDY    40  31  70 S10       30.20F WCI  33

...EASTERN NEBRASKA...

CITY           SKY/WX    TMP DP  RH WIND       PRES   REMARKS
NORFOLK        PTSUNNY   30  17  58 SW5       30.23F WCI  25
SO SIOUX CITY  PTSUNNY   33  12  41 VRB5      30.27F WCI  29
TEKAMAH        SUNNY     35  15  44 CALM      30.28F
COLUMBUS       MOSUNNY   34  18  51 SE6       30.27F WCI  29
ALBION         CLOUDY    33  23  67 S6        30.23F WCI  27
OMAHA EPPLEY   CLOUDY    35  16  45 CALM      30.29F
OFFUTT AFB     MOSUNNY   34  18  51 CALM      30.28F
MILLARD        SUNNY     33  16  49 NW6       30.30S WCI  27
LINCOLN        SUNNY     35  22  58 NW5       30.30F WCI  31
NEBRASKA CITY  SUNNY     33  17  53 N7        30.29F WCI  26
BEATRICE       SUNNY     34  21  60 NE6       30.29F WCI  29
FALLS CITY     SUNNY     35  19  52 VRB5      30.29F WCI  31

...NORTHERN KANSAS...

CITY           SKY/WX    TMP DP  RH WIND       PRES   REMARKS
GOODLAND       PTSUNNY   48  30  49 SW16G22   30.16F
HILL CITY      CLOUDY    39  29  67 S7        30.24F WCI  34
NORTON         CLOUDY    37  27  65 S7        30.22F WCI  32
PHILLIPSBURG   CLOUDY    39  27  60 CALM      30.25F
SMITH CENTER   CLOUDY    36  25  64 CALM      30.26F
BELOIT         CLOUDY    39  21  48 N6        30.26F WCI  35
HAYS           CLOUDY    39  21  48 S3        30.26S
RUSSELL        CLOUDY    42  25  50 NE7       30.24F
CONCORDIA      MOSUNNY   41  22  46 N10       30.26F
SALINA         SUNNY     44  25  47 E7        30.28F
TOPEKA         SUNNY     41  24  51 N13       30.29F



USA.gov is the U.S. government's official web portal to all federal, state and local government web resources and services.